Regional Weather Roundup
Issued by NWS Upton, NY

Current Version | Previous Version | Graphics & Text | Print | Product List | Glossary Off
Versions: 1 2 3 4 5 6 7 8 9 10 11 12 13 14 15 16 17 18 19 20 21 22 23 24 25 26 27 28 29 30 31 32 33 34 35 36 37 38 39 40 41 42 43 44 45 46 47 48 49 50

000
ASUS41 KOKX 300405
RWROKX

REGIONAL WEATHER ROUNDUP
NATIONAL WEATHER SERVICE NEW YORK NY
1100 PM EST THU JAN 29 2015

NOTE: "FAIR" INDICATES FEW OR NO CLOUDS BELOW 12,000 FEET WITH NO
SIGNIFICANT WEATHER AND/OR OBSTRUCTIONS TO VISIBILITY.

NYZ071-072-176-178-NJZ106-104-300500-
NEW YORK CITY METRO AREA


CITY           SKY/WX    TMP DP  RH WIND       PRES   REMARKS
CENTRAL PARK   CLOUDY    35  23  61 VRB3      30.04F
LAGUARDIA APRT CLOUDY    34  26  72 SW7       30.03F WCI  28
KENNEDY INTL   FLURRIES  36  28  73 S9        30.04F WCI  29
NEWARK/LIBERTY FLURRIES  32  25  75 CALM      30.03F
BRNX BOT. GARD   N/A    N/A N/A N/A S5        30.03F
TETERBORO      FLURRIES  32  24  72 S5        30.02F WCI  27
$$

NYZ177-179-078>081-300500-
LONG ISLAND NEW YORK

CITY           SKY/WX    TMP DP  RH WIND       PRES   REMARKS
FARMINGDALE    CLOUDY    36  30  79 W9        30.04F WCI  29
ISLIP          CLOUDY    33  28  81 CALM      30.03S
SHIRLEY        CLOUDY    37  31  78 SW5       30.05F WCI  33
WESTHAMPTON    CLOUDY    38  31  76 S6        30.04F WCI  33
MONTAUK POINT    N/A     37  30  75 VRB5      30.06F WCI  33
$$

NYZ052-065-067-300500-
HUDSON VALLEY

CITY           SKY/WX    TMP DP  RH WIND       PRES   REMARKS
WHITE PLAINS   CLOUDY    29  24  82 CALM      30.00F
NEWBURGH       CLOUDY    28  23  80 VRB3      29.98F
MONTGOMERY     FLURRIES  29  19  66 SW5       29.97F WCI  24
POUGHKEEPSIE   CLOUDY    31  24  75 S5        30.00F WCI  26
ALBANY         LGT SNOW  28  20  71 S13G26    29.94F WCI  17
$$

NJZ001-105-106-008-010-013-015-019>022-104-300500-
NEW JERSEY

CITY           SKY/WX    TMP DP  RH WIND       PRES   REMARKS
NEWARK/LIBERTY FLURRIES  32  25  75 CALM      30.03F
TETERBORO      FLURRIES  32  24  72 S5        30.02F WCI  27
CALDWELL       LGT SNOW  29  25  85 CALM      30.02F FOG
MORRISTOWN     LGT SNOW  32  25  74 CALM      30.02F
SOMERVILLE     LGT SNOW  30  24  78 CALM      29.99F
SUSSEX         LGT SNOW  26  22  84 SW3       29.96F FOG
ANDOVER          N/A     26  23  88 S6        29.97F WCI  19
TRENTON        LGT SNOW  30  24  78 S8        30.00F WCI  22
MILLVILLE      CLOUDY    35  26  69 VRB5      30.00F WCI  31
ATLANTIC CITY  CLOUDY    35  28  75 S8        30.01F WCI  29
WRIGHTSTOWN    FLURRIES  31  25  77 SE3       29.98F
TOMS RIVER     CLOUDY    34  28  80 CALM      30.02F
BELMAR         CLOUDY    34  25  69 CALM      30.01F
$$

PAZ047>061-062-071-300500-
EASTERN PENNSYLVANIA

CITY           SKY/WX    TMP DP  RH WIND       PRES   REMARKS
PHILADELPHIA   CLOUDY    33  22  63 VRB6      30.01F WCI  28
ALLENTOWN      CLOUDY    28  23  81 SE3       29.97F
SCRANTON       CLOUDY    28  20  71 SW6       29.88F WCI  22
$$

CTZ002-004>006-009-010-012-RIZ004-006-007-MAZ004-011-015-300500-
SOUTHERN NEW ENGLAND
 IN CT

CITY           SKY/WX    TMP DP  RH WIND       PRES   REMARKS
BRADLEY INTL   FLURRIES  29  22  75 SE3       30.03F
HARTFORD       CLOUDY    29  23  78 SE3       30.04F
DANBURY        CLOUDY    29  21  72 S5        30.02F WCI  24
WTRBRY/OXFORD  CLOUDY    28  19  69 S6        30.01S WCI  22
BRIDGEPORT     CLOUDY    32  28  85 CALM      30.05F
MERIDEN        CLOUDY    29  23  78 W3        30.04F
NEW HAVEN      CLOUDY    33  28  81 CALM      30.04F
CHESTER        CLOUDY    32  28  86 CALM      30.02F
GROTON         CLOUDY    35  31  85 SE12      30.05F WCI  27
WILLIMANTIC    CLOUDY    29  22  75 CALM      30.05F

 IN RI

CITY           SKY/WX    TMP DP  RH WIND       PRES   REMARKS
PROVIDENCE     CLOUDY    28  21  75 CALM      30.07F
BLOCK ISLAND   CLOUDY    36  27  69 S12       30.04F WCI  27
WESTERLY       CLOUDY    35  30  82 S9        30.06F WCI  28

 IN MA

CITY           SKY/WX    TMP DP  RH WIND       PRES   REMARKS
BOSTON         CLOUDY    28  21  75 SE6       30.08F WCI  22
WORCESTER      CLOUDY    25  19  78 S7        30.00F WCI  17
WESTFIELD      FLURRIES  29  22  75 S5        30.03F WCI  24
PROVINCETOWN   CLOUDY    30  25  80 SW7       30.11R WCI  23
NANTUCKET      CLOUDY    30  26  85 CALM      30.11F
$$

ANZ330-335-338-340-345-350-353-355-300500-
COASTAL MARINE OBSERVATIONS


STATION/POSITION TIME  SKY/WX   TEMP    WIND        PRES    VSBY  WAVE
                                AIR SEA DIR/SP/G                  HT/PER
                 (UTC)          (F)     (DEG/KT/KT) (MB)    (MI)  (FT/S)
NY HARB ENTRANCE 0400            37 39  190/ 12/ 14 1016.4          3/ 5
4S FIRE IS       0400               37                N/A           3/ 4
20S FIRE ISLAND  0300               42              1017.8          3/ 4
23SW MTP         0400                                 N/A           2/10
HUDSON CANYON    NOT AVBL
EXECUTION ROCKS  0400            33 33  130/  4/  6   N/A
WESTERN LI SOUND 0400            33        CALM       N/A           0
CENTRAL LI SOUND 0300            34 35  120/  4/  6   N/A           0
EASTERN LI SOUND NOT AVBL
ROBBINS REEF     0400            33     200/  4/  4 1015.7
$$


>>>>>>>>>>>>>>>>>>>>>>>>>>>> KEY <<<<<<<<<<<<<<<<<<<<<<<<<<<
>                                                          <
>     SKY/WX - SKY CONDITION/PRESENT WEATHER               <
>     TMP    - TEMPERATURE IN FAHRENHEIT                   <
>     DP     - DEWPOINT IN FAHRENHEIT                      <
>     RH     - RELATIVE HUMIDITY IN PERCENT                <
>     WIND   - DIRECTION AND SPEED IN MPH                  <
>     PRES   - MEAN SEA LEVEL PRESSURE IN INCHES OF HG     <
>     WCI    - WIND CHILL INDEX                            <
>     VSB    - VISIBILITY IN MILES                         <
>     HX     - HEAT INDEX                                  <
>     TC     - TEMPERATURE IN CELSIUS                      <
>     VRB    - VARIABLE WIND DIRECTION                     <
>                                                          <
>>>>>>>>>>>>>>>>>>>>>>>>>>>> KEY <<<<<<<<<<<<<<<<<<<<<<<<<<<





USA.gov is the U.S. government's official web portal to all federal, state and local government web resources and services.